Regional Weather Roundup
Issued by NWS

Home | Current Version | Previous Version | Text Only | Print | Product List | Glossary Off
Versions: 1 2 3 4 5 6 7 8 9 10 11 12 13 14 15 16 17 18 19 20 21 22 23 24 25 26 27 28 29 30 31 32 33 34 35 36 37 38 39 40 41 42 43 44 45 46 47 48 49 50

000
ASUS43 KFSD 250702
RWRSD

WEATHER ROUNDUP FOR SOUTH DAKOTA
NATIONAL WEATHER SERVICE SIOUX FALLS SD
200 AM CDT THU AUG 25 2016

NOTE: "FAIR" INDICATES FEW OR NO CLOUDS BELOW 12,000 FEET WITH NO
SIGNIFICANT WEATHER AND/OR OBSTRUCTIONS TO VISIBILITY.


SDZ001>005-009-010-012>017-250800-
NORTHWEST AND NORTH CENTRAL SOUTH DAKOTA

CITY           SKY/WX    TMP DP  RH WIND       PRES   REMARKS
BUFFALO          N/A     50  44  80 NW16      30.15F
FAITH            N/A     53  45  74 NW10      30.19S
MOBRIDGE       PTCLDY    59  46  62 NW14      30.09S
$$

SDZ012>016-024>037-041>051-057-063-072>074-250800-
SOUTHWEST AND SOUTH CENTRAL SOUTH DAKOTA

CITY           SKY/WX    TMP DP  RH WIND       PRES   REMARKS
RAPID CTY ARPT CLEAR     52  45  77 N8        30.23F
PIERRE         CLOUDY    59  46  62 NW10      30.12S
CUSTER         CLOUDY    50  44  80 NW6       30.28F
ELLSWORTH AFB  PTCLDY    56  45  67 NW14      30.23F
PHILIP         MOCLDY    60  45  57 NW9       30.19R
PINE RIDGE     CLOUDY    57  55  93 CALM      30.21F
WINNER         CLOUDY    60  52  74 NW10      30.15R
$$

SDZ004>011-016>023-039-040-250800-
NORTHEAST SOUTH DAKOTA

CITY           SKY/WX    TMP DP  RH WIND       PRES   REMARKS
ABERDEEN       CLEAR     58  48  69 W9        30.07S
WATERTOWN      CLEAR     60  55  83 W7        30.06R
BROOKINGS      CLEAR     58  53  84 W5        30.07R
$$

SDZ017-020-022-023-036>040-048>070-250800-
SOUTHEAST SOUTH DAKOTA

CITY           SKY/WX    TMP DP  RH WIND       PRES   REMARKS
SIOUX FALLS    PTCLDY    60  56  86 CALM      30.08S
HURON          CLEAR     56  51  84 NW8       30.08R
CHAMBERLAIN    CLEAR     61  54  77 NW8       30.12R
MITCHELL       CLEAR     61  54  77 W9        30.09R
YANKTON        PTCLDY    59  52  77 SE5       30.09R
$$

ABBREVIATIONS USED IN REMARKS
   TC - TEMPERATURE IN CELSIUS
  WCI - WIND CHILL INDEX
   HX - HEAT INDEX
  VSB - VISIBILITY





USA.gov is the U.S. government's official web portal to all federal, state and local government web resources and services.